• MPC Preparation (Info)

  • MPEC 2007-C59 : 2007 CN26

    The following Minor Planet Electronic Circular may be linked-to from your own Web pages, but must not otherwise be redistributed electronically.

    A form allowing access to any MPEC is at the bottom of this page.


    Read MPEC 2007-C58 Read MPEC 2007-C60


    M.P.E.C. 2007-C59                                Issued 2007 Feb. 13, 20:22 UT
    
         The Minor Planet Electronic Circulars contain information on unusual
             minor planets and routine data on comets.  They are published
       on behalf of Commission 20 of the International Astronomical Union by the
              Minor Planet Center, Smithsonian Astrophysical Observatory,
                              Cambridge, MA 02138, U.S.A.
    
                 Prepared using the Tamkin Foundation Computer Network
    
                                  MPC@CFA.HARVARD.EDU
              URL http://cfa-www.harvard.edu/iau/mpc.html  ISSN 1523-6714
    
                                       2007 CN26
    
    Observations:
         K07C26N* C2007 02 10.36181 09 40 44.97 +07 40 50.3          21.5 V EC059G96
         K07C26N  C2007 02 10.37067 09 40 43.96 +07 40 59.3          21.3 V EC059G96
         K07C26N  C2007 02 10.37965 09 40 42.92 +07 41 08.9          21.5 V EC059G96
         K07C26N  C2007 02 10.38853 09 40 41.88 +07 41 18.2          21.2 V EC059G96
         K07C26N  C2007 02 10.40861 09 40 39.61 +07 41 39.4          21.0 V EC059G96
         K07C26N  C2007 02 10.41507 09 40 38.84 +07 41 46.4          22.1 V EC059G96
         K07C26N  C2007 02 10.42157 09 40 38.11 +07 41 53.0          21.2 V EC059G96
         K07C26N  C2007 02 13.28985 09 35 16.00 +08 33 00.0          21.6 V EC059G96
         K07C26N  C2007 02 13.29872 09 35 15.00 +08 33 09.7          21.2 V EC059G96
         K07C26N  C2007 02 13.30760 09 35 13.92 +08 33 19.5          20.9 V EC059G96
         K07C26N  C2007 02 13.31689 09 35 12.84 +08 33 29.7          20.7 V EC059G96
    
    Observer details:
    G96 Mt. Lemmon Survey.  Observers S. M. Larson, A. R. Gibbs.  Measurers
        E. C. Beshore, E. J. Christensen, G. J. Garradd, A. R. Gibbs, A. D. Grauer,
        R. E. Hill, R. A. Kowalski, S. M. Larson, R. H. McNaught.  1.5-m reflector
        + CCD.
    
    Orbital elements:
    2007 CN26                                                Earth MOID = 0.1403 AU
    Epoch 2007 Apr. 10.0 TT = JDT 2454200.5                 MPC
    M 240.96807              (2000.0)            P               Q
    n   0.66561541     Peri.  156.14661     +0.67427829     +0.73402422
    a   1.2991336      Node   155.99660     -0.70552334     +0.67269553
    e   0.3958872      Incl.   11.48214     -0.21814127     +0.09321574
    P   1.48           H   20.1           G   0.15           U   9
    Residuals in seconds of arc
    070210 G96  0.0   0.1+    070210 G96  0.3+  0.0     070213 G96  0.4+  0.1-
    070210 G96  0.1+  0.2-    070210 G96  0.2-  0.2+    070213 G96  0.2-  0.1+
    070210 G96  0.0   0.1-    070210 G96  0.0   0.0     070213 G96  0.0   0.2+
    070210 G96  0.3-  0.1-    070213 G96  0.2-  0.2-
    
    Ephemeris:
    2007 CN26                a,e,i = 1.30, 0.40, 11                  q = 0.7848
    Date    TT    R. A. (2000) Decl.     Delta      r     Elong.  Phase     V
    2007 02 09    09 43.26   +07 17.2    0.814    1.796   171.6     4.6    21.3
    2007 02 14    09 33.92   +08 45.9    0.804    1.790   174.3     3.2    21.2
    2007 02 19    09 24.47   +10 17.3    0.802    1.783   169.3     5.9    21.3
    2007 02 24    09 15.29   +11 48.1    0.806    1.775   162.3     9.8    21.5
    2007 03 01    09 06.75   +13 15.3    0.817    1.766   155.1    13.7    21.7
    2007 03 06    08 59.13   +14 36.8    0.835    1.756   148.0    17.4    21.8
    2007 03 11    08 52.65   +15 51.0    0.857    1.746   141.2    20.9    22.0
    
    Kyle E. Smalley              (C) Copyright 2007 MPC           M.P.E.C. 2007-C59
    

    Read MPEC 2007-C58 Read MPEC 2007-C60


    MPEC number:

    Enter an MPEC number in one of the following forms:

    • 1997-B01 (the full form)
    • J97B01 (the packed version of the full form)
    • B01 (the abbreviated form)